Regional Weather Roundup
Issued by NWS

Home | Current Version | Previous Version | Graphics & Text | Print | Product List | Glossary On
Versions: 1 2 3 4 5 6 7 8 9 10 11 12 13 14 15 16 17 18 19 20 21 22 23 24 25 26 27 28 29 30 31 32 33 34 35 36 37 38 39 40 41 42 43 44 45 46 47 48 49 50
000
ASUS43 KMKX 030000
RWRWI

WISCONSIN REGIONAL WEATHER ROUNDUP
NATIONAL WEATHER SERVICE MILWAUKEE/SULLIVAN WI
700 PM CDT SUN AUG 02 2015

NOTE: "FAIR" INDICATES FEW OR NO CLOUDS BELOW 12,000 FEET WITH NO
SIGNIFICANT WEATHER AND/OR OBSTRUCTIONS TO VISIBILITY.

WIZ001-002-006>008-014>016-023>028-030100-
NORTHWEST WISCONSIN

CITY           SKY/WX    TMP DP  RH WIND       PRES   REMARKS
SUPERIOR ARPT  SUNNY     74  51  44 NW15G26   29.70R
ASHLAND        SUNNY     72  58  61 W6        29.68R
6HR MIN TEMP:  66; 6HR MAX TEMP:  79; 6HR PCP:  0.05;

HAYWARD        MOSUNNY   74  56  53 VRB7      29.70S
6HR MIN TEMP:  74; 6HR MAX TEMP:  79;

SIREN          SUNNY     76  50  40 NW14G22   29.72R
CUMBERLAND     SUNNY     73  54  49 NW12G18   29.71R
RICE LAKE      SUNNY     76  56  49 NW10G17   29.71S
CHETEK         MOSUNNY   78  58  50 W6        29.69S
LADYSMITH      PTSUNNY   75  56  51 NW14      29.70S
EAU CLAIRE     NOT AVBL
MENOMONIE      SUNNY     80  57  44 NW12      29.69S HX  80
NEW RICHMOND   MOSUNNY   76  57  51 NW12G18   29.72S
OSCEOLA        MOSUNNY   77  57  50 NW13G18   29.74S
$$

WIZ003>005-009-010-017-018-030100-
NORTH CENTRAL WISCONSIN

CITY           SKY/WX    TMP DP  RH WIND       PRES   REMARKS
MANITOWISH WTR CLOUDY    67  60  78 NW10      29.68R
ARBOR VITAE    RAIN      71  59  65 NW17      29.68R
WOODRUFF       RAIN      71  59  65 NW17      29.68R
RHINELANDER    MOSUNNY   72  55  55 NW6       29.67R
6HR MIN TEMP:  64; 6HR MAX TEMP:  76; 6HR PCP: TRACE;

EAGLE RIVER    MOSUNNY   69  51  51 NW7       29.66R
LAND O LAKES   MOSUNNY   71  53  52 NW10G21   29.67R
PHILLIPS       PTSUNNY   71  58  64 NW5       29.68R
6HR MIN TEMP:  67; 6HR MAX TEMP:  76;

TOMAHAWK       SUNNY     73  57  58 NW8       29.67R
MEDFORD        SUNNY     74  60  60 NW12G18   29.68R
MERRILL        NOT AVBL
$$

WIZ029-030-035-036-043>047-030100-
CENTRAL WISCONSIN

CITY           SKY/WX    TMP DP  RH WIND       PRES   REMARKS
WAUSAU         MOSUNNY   76  57  51 NW13G24   29.64R
6HR MIN TEMP:  72; 6HR MAX TEMP:  85; 6HR PCP:  0.02;

MOSINEE        MOSUNNY   75  63  64 NW13G18   29.66R
MARSHFIELD     SUNNY     77  58  51 NW12      29.67R
6HR MIN TEMP:  68; 6HR MAX TEMP:  89; 6HR PCP:  0.28;

STEVENS POINT  SUNNY     76  61  59 NW7       29.65R
WAUPACA        MOSUNNY   78  67  68 NW8       29.63R HX  80
WAUTOMA        NOT AVBL
WISC RAPIDS    SUNNY     80  58  46 NW15G24   29.67R HX  80
6HR MIN TEMP:  76; 6HR MAX TEMP:  94; 6HR PCP: TRACE;

CAMP DOUGLAS   NOT AVBL
$$

WIZ011>013-019>022-031-037>040-048>050-030100-
NORTHEAST WISCONSIN

CITY           SKY/WX    TMP DP  RH WIND       PRES   REMARKS
ANTIGO         MOSUNNY   69  64  84 NW9       29.65R
SHAWANO        PTSUNNY   71  64  78 S3        29.62R
OCONTO         CLOUDY    65  65 100 NW3       29.61R
STURGEON BAY   CLOUDY    63  59  88 NW5       29.63R
6HR MIN TEMP:  61; 6HR MAX TEMP:  75;

GREEN BAY      PTSUNNY   68  63  84 NW6       29.62R
6HR MIN TEMP:  64; 6HR MAX TEMP:  93; 6HR PCP:  0.64;

MANITOWOC      NOT AVBL
APPLETON       PTSUNNY   70  57  64 N10       29.63R
CLINTONVILLE   PTSUNNY   70  63  78 SE5       29.63R
OSHKOSH        PTSUNNY   73  62  68 N14       29.61R
6HR MIN TEMP:  70; 6HR MAX TEMP:  91; 6HR PCP:  0.28;

$$

WIZ032>034-041-042-053>061-030100-
SOUTHWEST WISCONSIN

CITY           SKY/WX    TMP DP  RH WIND       PRES   REMARKS
LA CROSSE      SUNNY     84  63  49 NW16      29.67R HX  85
6HR MIN TEMP:  82; 6HR MAX TEMP:  94;

SPARTA         SUNNY     83  59  44 NW14G21   29.67S HX  83
VIROQUA        MOSUNNY   81  62  51 W12G20    29.69R HX  82
BOSCOBEL       SUNNY     89  63  41 NW13      29.65S HX  90
6HR MIN TEMP:  89; 6HR MAX TEMP:  94;

PRAIRIE DU CHI SUNNY     89  55  31 W9G20     29.66S HX  87
PLATTEVILLE    SUNNY     87  71  59 W14G22    29.68S HX  92
$$

WIZ056-057-062-063-064-067-068-030100-
SOUTH CENTRAL WISCONSIN

CITY           SKY/WX    TMP DP  RH WIND       PRES   REMARKS
REEDSBURG      MOSUNNY   87  63  44 W18G24    29.63R HX  88
BARABOO/DELLS  MOSUNNY   87  57  36 NW16G23   29.63R HX  86
LONE ROCK      NOT AVBL
MINERAL POINT  MOSUNNY   88  63  42 W21G28    29.66F HX  88
MADISON        MOSUNNY   88  62  41 W12G21    29.60R HX  88
6HR MIN TEMP:  86; 6HR MAX TEMP:  90;

MIDDLETON      MOSUNNY   89  63  40 W16G28    29.63R HX  90
WATERTOWN      PTSUNNY   86  71  59 SW17G25   29.57F HX  91
MONROE         MOSUNNY   86  72  62 SW25G31   29.66S HX  92
JANESVILLE     MOSUNNY   88  72  58 SW15G30   29.62F HX  94
$$

WIZ051-052-058>065-066-070>072-030100-
SOUTHEAST WISCONSIN

CITY           SKY/WX    TMP DP  RH WIND       PRES   REMARKS
MILWAUKEE      PTSUNNY   88  69  53 SW23G36   29.57F HX  92
6HR MIN TEMP:  88; 6HR MAX TEMP:  93;

WAUKESHA       PTSUNNY   86  70  58 SW22G32   29.59F HX  90
MILWAUKEE/TIMM SUNNY     88  66  48 SW21G30   29.56F HX  90
RACINE         MOSUNNY   88  69  53 SW18G32   29.61R HX  92
6HR MIN TEMP:  88; 6HR MAX TEMP:  92;

BURLINGTON     MOSUNNY   85  69  58 SW17G26   29.62R HX  88
KENOSHA        MOSUNNY   87  71  58 SW28G37   29.60F HX  93
6HR MIN TEMP:  87; 6HR MAX TEMP:  92;

FOND DU LAC    CLOUDY    73  63  70 NE16      29.63R
6HR MIN TEMP:  66; 6HR MAX TEMP:  90; 6HR PCP:  0.56;

SHEBOYGAN      CLOUDY    66  64  93 VRB5      29.60S
6HR MIN TEMP:  64; 6HR MAX TEMP:  91; 6HR PCP:  0.35;

WEST BEND      HVY RAIN  70  63  78 N18G29    29.53F
JUNEAU         PTSUNNY   81  67  62 NW10G21   29.60R HX  83
$$

LSZ147-162-030100-
LAKE SUPERIOR

STATION/POSITION TIME  TEMP    WIND        PRES    WAVE
                       AIR SEA DIR/SP/G            HT/PER
                 (UTC) (F)     (DEG/KT/KT) (MB)    (FT/S)
W MID LAKE BUOY  2250   60 56  260/ 12/ 12 1002.6R   1/ 3
DEVILS ISLAND    2300   64     270/  9/ 11 1003.8R
PORT WING        2300   68     280/  7/  8 1005.1S
SAXON HARBOR     2340   73                 1004.1R
$$

LMZ867-665-643>646-030100-
LAKE MICHIGAN

STATION/POSITION TIME  TEMP    WIND        PRES    WAVE
                       AIR SEA DIR/SP/G            HT/PER
                 (UTC) (F)     (DEG/KT/KT) (MB)    (FT/S)
CHAMBERS ISLAND  2300   66     240/  2/  5 1002.4R
S GREEN BAY BUOY 2300   64 70  300/  8/ 10 1003.5S
N MID LAKE BUOY  2250   68 68  190/  4/  6 1001.2R   1/ 5
NORTHPORT PIER   2300   66      CALM  /  4 1002.0R
ALGOMA LAKESHORE 2312          330/  6/  8   N/A
KEWAUNEE LAKESHO 2300   62      CALM  /  7 1000.8F
SHEBOYGAN LAKESH 2300          110/  9/ 11 1002.4R
PORT WASHINGTON  2321   77     330/  9/ 26 1001.7R
ATWATER BUOY     2300   81 48  220/ 23/ 33 1002.6S
MILWAUKEE LAKESH 2300   87     240/ 26/ 36   N/A
KENOSHA   LAKESH 2300   89     240/ 25/ 32 1002.0F
$$

TC  - TEMPERATURE IN CELSIUS
VSB - VISIBILITY IN STATUTE MILES
WCI - WIND CHILL INDEX
HX  - HEAT INDEX



USA.gov is the U.S. government's official web portal to all federal, state and local government web resources and services.